OK1VCF-8 Weather Reports


time (UTC)temp
F
wind
direction
speed
knots
gust
knots
rain 1hr
in
rain 24hr
in
rain mn
in
humidity
%
barometer
mb
20260905235206 59 0 0.0 0.0 0.00 0.00 0.00 66 1025.5
20260905234438 59 0 0.0 0.0 0.00 0.00 0.00 67 1025.6
20260905233708 59 0 0.0 0.0 0.00 0.00 0.00 66 1025.4
20260905232940 60 0 0.0 0.0 0.00 0.00 0.00 65 1025.4
20260905232209 60 0 0.0 0.0 0.00 0.00 0.00 64 1025.4
20260905231449 59 0 0.0 0.0 0.00 0.00 0.00 65 1025.4
20260905230732 59 0 0.0 0.0 0.00 0.00 0.00 65 1025.2
20260905230015 60 0 0.0 0.0 0.00 0.00 0.00 64 1025.2
20260905225258 59 0 0.0 0.0 0.00 0.00 0.00 64 1025.2
20260905224541 59 0 0.0 0.0 0.00 0.00 0.00 64 1025.1
20260905223824 60 0 0.0 0.0 0.00 0.00 0.00 62 1025.0
20260905223108 60 0 0.0 0.0 0.00 0.00 0.00 62 1025.2
20260905222106 60 0 0.0 0.0 0.00 0.00 0.00 60 1025.0
20260905221349 61 0 0.0 0.0 0.00 0.00 0.00 59 1024.8
20260905220633 62 0 0.0 0.0 0.00 0.00 0.00 59 1025.1
20260905215915 62 0 0.0 0.0 0.00 0.00 0.00 58 1025.0
20260905215159 62 0 0.0 0.0 0.00 0.00 0.00 58 1024.9
20260905214442 61 0 0.0 0.0 0.00 0.00 0.00 59 1024.8
20260905213725 61 0 0.0 0.0 0.00 0.00 0.00 59 1024.8
20260905213008 62 0 0.0 0.0 0.00 0.00 0.00 57 1024.7
20260905212251 62 0 0.0 0.0 0.00 0.00 0.00 56 1024.6
20260905211533 62 0 0.0 0.0 0.00 0.00 0.00 56 1024.5
20260905210815 64 0 0.0 0.0 0.00 0.00 0.00 54 1024.5
20260905210057 62 0 0.0 0.0 0.00 0.00 0.00 54 1024.5
20260905205339 63 0 0.0 0.0 0.00 0.00 0.00 54 1024.4
20260905204620 62 0 0.0 0.0 0.00 0.00 0.00 54 1024.4
20260905203902 62 0 0.0 0.0 0.00 0.00 0.00 54 1024.4
20260905201433 62 0 0.0 0.0 0.00 0.00 0.00 56 1024.0
20260905200716 62 0 0.0 0.0 0.00 0.00 0.00 56 1024.0
20260905195956 61 0 0.0 0.0 0.00 0.00 0.00 59 1023.8
20260905195238 62 0 0.0 0.0 0.00 0.00 0.00 58 1023.8
20260905194521 62 0 0.0 0.0 0.00 0.00 0.00 58 1023.7
20260905193802 62 0 0.0 0.0 0.00 0.00 0.00 57 1023.4
20260905193043 62 0 0.0 0.0 0.00 0.00 0.00 56 1023.4
20260905192322 63 0 0.0 0.0 0.00 0.00 0.00 55 1023.4
20260905191603 64 0 0.0 0.0 0.00 0.00 0.00 54 1023.3
20260905190843 62 0 0.0 0.0 0.00 0.00 0.00 58 1023.1
20260905190125 63 0 0.0 0.0 0.00 0.00 0.00 56 1023.0
20260905185405 64 0 0.0 0.0 0.00 0.00 0.00 56 1023.1
20260905184647 64 0 0.0 0.0 0.00 0.00 0.00 54 1022.8
20260905183641 65 0 0.0 0.0 0.00 0.00 0.00 53 1022.8
20260905182922 64 0 0.0 0.0 0.00 0.00 0.00 53 1022.9
20260905182203 65 0 0.0 0.0 0.00 0.00 0.00 53 1022.8
20260905181443 65 0 0.0 0.0 0.00 0.00 0.00 52 1022.6
20260905180723 66 0 0.0 0.0 0.00 0.00 0.00 51 1022.5
20260905180003 66 0 0.0 0.0 0.00 0.00 0.00 50 1022.4
20260905175244 66 0 0.0 0.0 0.00 0.00 0.00 49 1022.2
20260905174527 67 0 0.0 0.0 0.00 0.00 0.00 48 1022.1
20260905173808 67 0 0.0 0.0 0.00 0.00 0.00 48 1021.9
20260905173049 68 0 0.0 0.0 0.00 0.00 0.00 47 1021.8
20260905172330 68 0 0.0 0.0 0.00 0.00 0.00 46 1021.8
20260905171611 68 0 0.0 0.0 0.00 0.00 0.00 46 1021.6
20260905170853 69 0 0.0 0.0 0.00 0.00 0.00 46 1021.6
20260905170135 70 0 0.0 0.0 0.00 0.00 0.00 45 1021.4
20260905165415 70 0 0.0 0.0 0.00 0.00 0.00 44 1021.3
20260905164412 70 0 0.0 0.0 0.00 0.00 0.00 44 1021.2
20260905163653 75 0 0.0 0.0 0.00 0.00 0.00 38 1021.0
20260905162934 76 0 0.0 0.0 0.00 0.00 0.00 37 1021.0
20260905162214 76 0 0.0 0.0 0.00 0.00 0.00 37 1020.9
20260905161454 80 0 0.0 0.0 0.00 0.00 0.00 35 1020.8
20260905160734 78 0 0.0 0.0 0.00 0.00 0.00 36 1020.6
20260905160014 78 0 0.0 0.0 0.00 0.00 0.00 36 1020.6
20260905155256 78 0 0.0 0.0 0.00 0.00 0.00 37 1020.6
20260905154536 74 0 0.0 0.0 0.00 0.00 0.00 40 1020.4
20260905153818 74 0 0.0 0.0 0.00 0.00 0.00 40 1020.4
20260905153059 78 0 0.0 0.0 0.00 0.00 0.00 36 1020.4
20260905152341 76 0 0.0 0.0 0.00 0.00 0.00 38 1020.4
20260905151621 78 0 0.0 0.0 0.00 0.00 0.00 36 1020.4
20260905150903 74 0 0.0 0.0 0.00 0.00 0.00 39 1020.2
20260905150143 74 0 0.0 0.0 0.00 0.00 0.00 40 1020.4
20260905145137 74 0 0.0 0.0 0.00 0.00 0.00 40 1020.1
20260905144418 74 0 0.0 0.0 0.00 0.00 0.00 40 1020.3
20260905143659 74 0 0.0 0.0 0.00 0.00 0.00 41 1020.2
20260905142939 74 0 0.0 0.0 0.00 0.00 0.00 40 1020.2
20260905142220 74 0 0.0 0.0 0.00 0.00 0.00 40 1020.2
20260905140033 74 0 0.0 0.0 0.00 0.00 0.00 41 1020.3
20260905133853 73 0 0.0 0.0 0.00 0.00 0.00 42 1020.3
20260905133132 73 0 0.0 0.0 0.00 0.00 0.00 43 1020.2
20260905132412 72 0 0.0 0.0 0.00 0.00 0.00 44 1020.2
20260905131655 72 0 0.0 0.0 0.00 0.00 0.00 44 1020.4
20260905130935 72 0 0.0 0.0 0.00 0.00 0.00 44 1020.2
20260905125928 72 0 0.0 0.0 0.00 0.00 0.00 44 1020.4
20260905125154 72 0 0.0 0.0 0.00 0.00 0.00 43 1020.4
20260905124417 72 0 0.0 0.0 0.00 0.00 0.00 42 1020.4
20260905123641 73 0 0.0 0.0 0.00 0.00 0.00 42 1020.5
20260905122905 74 0 0.0 0.0 0.00 0.00 0.00 40 1020.5
20260905122130 73 0 0.0 0.0 0.00 0.00 0.00 41 1020.6
20260905121356 73 0 0.0 0.0 0.00 0.00 0.00 40 1020.7
20260905120624 74 0 0.0 0.0 0.00 0.00 0.00 41 1020.6
20260905115852 74 0 0.0 0.0 0.00 0.00 0.00 42 1020.6
20260905115121 74 0 0.0 0.0 0.00 0.00 0.00 42 1020.7
20260905114348 74 0 0.0 0.0 0.00 0.00 0.00 42 1020.8
20260905113610 74 0 0.0 0.0 0.00 0.00 0.00 44 1020.8
20260905112836 72 0 0.0 0.0 0.00 0.00 0.00 45 1020.8
20260905112105 71 0 0.0 0.0 0.00 0.00 0.00 48 1020.8
20260905111338 71 0 0.0 0.0 0.00 0.00 0.00 48 1020.8
20260905110335 70 0 0.0 0.0 0.00 0.00 0.00 50 1021.0
20260905105613 70 0 0.0 0.0 0.00 0.00 0.00 51 1020.8
20260905104854 71 0 0.0 0.0 0.00 0.00 0.00 50 1020.8
20260905104132 72 0 0.0 0.0 0.00 0.00 0.00 50 1020.8
20260905103413 70 0 0.0 0.0 0.00 0.00 0.00 52 1020.8
20260905102654 72 0 0.0 0.0 0.00 0.00 0.00 50 1020.8
20260905101933 70 0 0.0 0.0 0.00 0.00 0.00 54 1020.8
20260905101215 71 0 0.0 0.0 0.00 0.00 0.00 52 1020.9
20260905100455 70 0 0.0 0.0 0.00 0.00 0.00 53 1020.8
20260905095735 69 0 0.0 0.0 0.00 0.00 0.00 56 1021.0
20260905095015 70 0 0.0 0.0 0.00 0.00 0.00 56 1020.8
20260905094256 70 0 0.0 0.0 0.00 0.00 0.00 56 1021.0
20260905093536 68 0 0.0 0.0 0.00 0.00 0.00 58 1021.0
20260905092816 68 0 0.0 0.0 0.00 0.00 0.00 60 1020.9
20260905092056 68 0 0.0 0.0 0.00 0.00 0.00 57 1021.0
20260905091053 69 0 0.0 0.0 0.00 0.00 0.00 58 1021.0
20260905090334 68 0 0.0 0.0 0.00 0.00 0.00 58 1021.2
20260905085614 67 0 0.0 0.0 0.00 0.00 0.00 58 1020.9
20260905084853 66 0 0.0 0.0 0.00 0.00 0.00 62 1020.9
20260905084132 66 0 0.0 0.0 0.00 0.00 0.00 62 1021.0
20260905083412 65 0 0.0 0.0 0.00 0.00 0.00 64 1021.0
20260905082651 64 0 0.0 0.0 0.00 0.00 0.00 66 1021.0
20260905081931 64 0 0.0 0.0 0.00 0.00 0.00 66 1021.0
20260905081213 64 0 0.0 0.0 0.00 0.00 0.00 70 1020.9
20260905080453 63 0 0.0 0.0 0.00 0.00 0.00 70 1020.8
20260905075731 64 0 0.0 0.0 0.00 0.00 0.00 70 1020.8
20260905075012 63 0 0.0 0.0 0.00 0.00 0.00 72 1020.6
20260905074252 62 0 0.0 0.0 0.00 0.00 0.00 72 1020.5
20260905073534 62 0 0.0 0.0 0.00 0.00 0.00 74 1020.4
20260905072814 62 0 0.0 0.0 0.00 0.00 0.00 73 1020.3
20260905071810 62 0 0.0 0.0 0.00 0.00 0.00 75 1020.2
20260905071048 62 0 0.0 0.0 0.00 0.00 0.00 76 1020.4
20260905070321 62 0 0.0 0.0 0.00 0.00 0.00 77 1020.4
20260905065552 62 0 0.0 0.0 0.00 0.00 0.00 78 1020.6
20260905064826 61 0 0.0 0.0 0.00 0.00 0.00 78 1020.4
20260905064105 62 0 0.0 0.0 0.00 0.00 0.00 80 1020.4
20260905063341 61 0 0.0 0.0 0.00 0.00 0.00 82 1020.4
20260905062615 61 0 0.0 0.0 0.00 0.00 0.00 82 1020.4
20260905061847 61 0 0.0 0.0 0.00 0.00 0.00 82 1020.3
20260905061121 60 0 0.0 0.0 0.00 0.00 0.00 85 1020.2
20260905060357 58 0 0.0 0.0 0.00 0.00 0.00 86 1020.0
20260905055634 58 0 0.0 0.0 0.00 0.00 0.00 88 1019.9
20260905054912 58 0 0.0 0.0 0.00 0.00 0.00 90 1019.8
20260905054152 58 0 0.0 0.0 0.00 0.00 0.00 90 1019.6
20260905053433 57 0 0.0 0.0 0.00 0.00 0.00 92 1019.6
20260905052429 56 0 0.0 0.0 0.00 0.00 0.00 92 1019.6
20260905051710 57 0 0.0 0.0 0.00 0.00 0.00 92 1019.5
20260905050952 56 0 0.0 0.0 0.00 0.00 0.00 92 1019.4
20260905050235 56 0 0.0 0.0 0.00 0.00 0.00 92 1019.2
20260905045517 56 0 0.0 0.0 0.00 0.00 0.00 92 1019.1
20260905044758 56 0 0.0 0.0 0.00 0.00 0.00 92 1019.0
20260905044039 56 0 0.0 0.0 0.00 0.00 0.00 92 1018.8
20260905043321 56 0 0.0 0.0 0.00 0.00 0.00 92 1018.8
20260905042603 56 0 0.0 0.0 0.00 0.00 0.00 92 1018.7
20260905041842 56 0 0.0 0.0 0.00 0.00 0.00 91 1018.4
20260905041125 57 0 0.0 0.0 0.00 0.00 0.00 91 1018.0
20260905040405 57 0 0.0 0.0 0.00 0.00 0.00 90 1017.8
20260905035644 57 0 0.0 0.0 0.00 0.00 0.00 90 1018.0
20260905034926 57 0 0.0 0.0 0.00 0.00 0.00 88 1018.1
20260905034208 57 0 0.0 0.0 0.00 0.00 0.00 87 1018.6
20260905033206 58 0 0.0 0.0 0.00 0.00 0.00 84 1018.5
20260905032447 58 0 0.0 0.0 0.00 0.00 0.00 81 1018.8
20260905031729 60 0 0.0 0.0 0.00 0.00 0.00 78 1018.6
20260905031011 60 0 0.0 0.0 0.00 0.00 0.00 76 1018.2
20260905030254 60 0 0.0 0.0 0.00 0.00 0.00 75 1018.4
20260905025534 60 0 0.0 0.0 0.00 0.00 0.00 74 1018.4
20260905024814 60 0 0.0 0.0 0.00 0.00 0.00 72 1018.6
20260905024057 60 0 0.0 0.0 0.00 0.00 0.00 74 1018.1
20260905023338 60 0 0.0 0.0 0.00 0.00 0.00 74 1017.9
20260905022618 60 0 0.0 0.0 0.00 0.00 0.00 74 1017.8
20260905021900 60 0 0.0 0.0 0.00 0.00 0.00 75 1017.5
20260905021141 60 0 0.0 0.0 0.00 0.00 0.00 77 1017.4
20260905020422 59 0 0.0 0.0 0.00 0.00 0.00 76 1017.4
20260905015704 59 0 0.0 0.0 0.00 0.00 0.00 77 1017.6
20260905014946 59 0 0.0 0.0 0.00 0.00 0.00 74 1017.4
20260905013942 60 0 0.0 0.0 0.00 0.00 0.00 70 1017.5
20260905013223 62 0 0.0 0.0 0.00 0.00 0.00 66 1017.2
20260905012503 64 0 0.0 0.0 0.00 0.00 0.00 60 1016.9
20260905011741 64 0 0.0 0.0 0.00 0.00 0.00 62 1016.8
20260905011014 65 0 0.0 0.0 0.00 0.00 0.00 64 1017.0
20260905010245 65 0 0.0 0.0 0.00 0.00 0.00 64 1017.0
20260905005516 65 0 0.0 0.0 0.00 0.00 0.00 64 1017.0
20260905004750 65 0 0.0 0.0 0.00 0.00 0.00 65 1017.0
20260905004022 65 0 0.0 0.0 0.00 0.00 0.00 64 1016.9
20260905003254 65 0 0.0 0.0 0.00 0.00 0.00 64 1016.8
20260905001058 66 0 0.0 0.0 0.00 0.00 0.00 62 1016.6
20260905000329 66 0 0.0 0.0 0.00 0.00 0.00 64 1016.6
20260904235557 66 0 0.0 0.0 0.00 0.00 0.00 66 1016.5